When you browse on this site, cookies collect data to enhance your experience and personalize the content and advertising you see.
Visit our Privacy Policy to learn more. By continuing to use the site, you agree to this use of cookies and data.
  • In Belgium
  • List of Countries
  • For 7 days
  • Water Temperature
  • Weather Map
  • Weather Widgets
  • user-avatar
    Login

    Hourly Weather Pinsk

    Today, 4 June, Thursday

    Time Temperature Precipitation Wind Pressure Humidity
    00:00 +7°C° 0 mm 1 mps 739 mmHg 93%
    01:00 +7°C° 0 mm 1 mps 739 mmHg 94%
    02:00 +6°C° 0 mm 2 mps 740 mmHg 96%
    03:00 +7°C° 0 mm 1 mps 739 mmHg 96%
    04:00 +7°C° 0 mm 1 mps 739 mmHg 97%
    05:00 +7°C° 0 mm 1 mps 739 mmHg 97%
    06:00 +7°C° 0 mm 2 mps 739 mmHg 95%
    07:00 +8°C° 0 mm 2 mps 739 mmHg 94%
    08:00 +9°C° 0 mm 3 mps 739 mmHg 92%
    09:00 +11°C° 0.5 mm 3 mps 739 mmHg 87%
    10:00 +12°C° 0.5 mm 3 mps 739 mmHg 82%
    11:00 +14°C° 0.5 mm 3 mps 739 mmHg 77%
    12:00 +14°C° 0.9 mm 3 mps 739 mmHg 76%
    13:00 +15°C° 0.9 mm 4 mps 738 mmHg 75%
    14:00 +15°C° 0.9 mm 4 mps 738 mmHg 75%
    15:00 +15°C° 0.6 mm 4 mps 738 mmHg 75%
    16:00 +15°C° 0.6 mm 4 mps 738 mmHg 76%
    17:00 +15°C° 0.6 mm 4 mps 738 mmHg 76%
    18:00 +14°C° 0.6 mm 3 mps 738 mmHg 80%
    19:00 +13°C° 0.6 mm 3 mps 737 mmHg 83%
    20:00 +13°C° 0.6 mm 2 mps 737 mmHg 87%
    21:00 +12°C° 0 mm 2 mps 737 mmHg 88%
    22:00 +11°C° 0 mm 1 mps 737 mmHg 89%
    23:00 +10°C° 0 mm 1 mps 737 mmHg 90%

    Tomorrow, 5 June, Friday

    Time Temperature Precipitation Wind Pressure Humidity
    00:00 +10°C° 0 mm 1 mps 737 mmHg 90%
    01:00 +9°C° 0 mm 1 mps 737 mmHg 91%
    02:00 +9°C° 0 mm 1 mps 737 mmHg 91%
    03:00 +9°C° 0 mm 1 mps 737 mmHg 92%
    04:00 +9°C° 0 mm 1 mps 737 mmHg 93%
    05:00 +8°C° 0 mm 2 mps 737 mmHg 93%
    06:00 +10°C° 0 mm 2 mps 737 mmHg 92%
    07:00 +12°C° 0 mm 3 mps 737 mmHg 90%
    08:00 +14°C° 0 mm 3 mps 738 mmHg 89%
    09:00 +17°C° 0.1 mm 4 mps 738 mmHg 87%
    10:00 +18°C° 0.1 mm 4 mps 738 mmHg 85%
    11:00 +19°C° 0.1 mm 4 mps 738 mmHg 83%
    12:00 +20°C° 0.9 mm 5 mps 738 mmHg 83%
    13:00 +20°C° 0.9 mm 5 mps 738 mmHg 83%
    14:00 +20°C° 0.9 mm 6 mps 738 mmHg 83%
    15:00 +21°C° 0.2 mm 6 mps 738 mmHg 81%
    16:00 +21°C° 0.2 mm 5 mps 738 mmHg 79%
    17:00 +21°C° 0.2 mm 5 mps 738 mmHg 77%
    18:00 +20°C° 0.2 mm 5 mps 738 mmHg 81%
    19:00 +19°C° 0.2 mm 4 mps 738 mmHg 85%
    20:00 +18°C° 0.2 mm 4 mps 738 mmHg 89%
    21:00 +18°C° 0.3 mm 4 mps 739 mmHg 91%
    22:00 +17°C° 0.3 mm 4 mps 739 mmHg 92%
    23:00 +16°C° 0.3 mm 3 mps 739 mmHg 93%

    Day after tomorrow, 6 June, Saturday

    Time Temperature Precipitation Wind Pressure Humidity
    00:00 +15°C° 0 mm 4 mps 740 mmHg 93%
    01:00 +14°C° 0 mm 4 mps 740 mmHg 93%
    02:00 +14°C° 0 mm 4 mps 740 mmHg 93%
    03:00 +14°C° 0 mm 4 mps 740 mmHg 93%
    04:00 +15°C° 0 mm 4 mps 740 mmHg 92%
    05:00 +15°C° 0 mm 4 mps 740 mmHg 92%
    06:00 +15°C° 0.1 mm 4 mps 741 mmHg 91%
    07:00 +17°C° 0.1 mm 4 mps 741 mmHg 90%
    08:00 +17°C° 0.1 mm 4 mps 742 mmHg 89%
    09:00 +18°C° 0 mm 4 mps 742 mmHg 87%
    10:00 +19°C° 0 mm 4 mps 743 mmHg 85%
    11:00 +19°C° 0 mm 4 mps 743 mmHg 84%
    12:00 +20°C° 0 mm 4 mps 744 mmHg 80%
    13:00 +21°C° 0 mm 4 mps 744 mmHg 76%
    14:00 +21°C° 0 mm 4 mps 745 mmHg 72%
    15:00 +21°C° 0 mm 4 mps 745 mmHg 72%
    16:00 +22°C° 0 mm 3 mps 745 mmHg 73%
    17:00 +22°C° 0 mm 3 mps 745 mmHg 73%
    18:00 +20°C° 0 mm 2 mps 745 mmHg 78%
    19:00 +19°C° 0 mm 2 mps 745 mmHg 83%
    20:00 +19°C° 0 mm 1 mps 746 mmHg 87%
    21:00 +18°C° 0 mm 1 mps 746 mmHg 88%
    22:00 +16°C° 0 mm 1 mps 746 mmHg 88%
    23:00 +15°C° 0 mm 1 mps 746 mmHg 88%

    7 June, Sunday

    Time Temperature Precipitation Wind Pressure Humidity
    00:00 +15°C° 0 mm 2 mps 746 mmHg 88%
    01:00 +15°C° 0 mm 2 mps 746 mmHg 88%
    02:00 +15°C° 0 mm 2 mps 746 mmHg 88%
    03:00 +14°C° 0.1 mm 3 mps 746 mmHg 90%
    04:00 +14°C° 0.1 mm 3 mps 746 mmHg 91%
    05:00 +14°C° 0.1 mm 3 mps 746 mmHg 93%
    06:00 +17°C° 0.3 mm 4 mps 746 mmHg 92%
    07:00 +18°C° 0.3 mm 4 mps 746 mmHg 91%
    08:00 +20°C° 0.3 mm 4 mps 746 mmHg 91%
    09:00 +22°C° 0 mm 4 mps 746 mmHg 82%
    10:00 +23°C° 0 mm 5 mps 745 mmHg 73%
    11:00 +26°C° 0 mm 6 mps 745 mmHg 64%
    12:00 +26°C° 0 mm 6 mps 745 mmHg 64%
    13:00 +27°C° 0 mm 6 mps 745 mmHg 63%
    14:00 +27°C° 0 mm 6 mps 745 mmHg 63%
    15:00 +27°C° 0 mm 6 mps 744 mmHg 65%
    16:00 +27°C° 0 mm 5 mps 744 mmHg 68%
    17:00 +27°C° 0 mm 5 mps 744 mmHg 70%
    18:00 +25°C° 0 mm 4 mps 744 mmHg 74%
    19:00 +23°C° 0 mm 4 mps 745 mmHg 78%
    20:00 +21°C° 0 mm 4 mps 745 mmHg 83%
    21:00 +20°C° 0.1 mm 4 mps 745 mmHg 85%
    22:00 +19°C° 0.1 mm 4 mps 746 mmHg 88%
    23:00 +19°C° 0.1 mm 3 mps 746 mmHg 91%

    8 June, Monday

    Time Temperature Precipitation Wind Pressure Humidity
    00:00 +18°C° 0 mm 3 mps 746 mmHg 90%
    01:00 +18°C° 0 mm 2 mps 746 mmHg 89%
    02:00 +17°C° 0 mm 2 mps 746 mmHg 88%
    03:00 +17°C° 0.1 mm 2 mps 746 mmHg 90%
    04:00 +17°C° 0.1 mm 2 mps 746 mmHg 91%
    05:00 +17°C° 0.1 mm 2 mps 745 mmHg 93%
    06:00 +18°C° 0.2 mm 2 mps 745 mmHg 92%
    07:00 +19°C° 0.2 mm 3 mps 745 mmHg 91%
    08:00 +20°C° 0.2 mm 3 mps 745 mmHg 90%
    09:00 +21°C° 0.9 mm 4 mps 745 mmHg 85%
    10:00 +23°C° 0.9 mm 4 mps 745 mmHg 80%
    11:00 +25°C° 0.9 mm 5 mps 745 mmHg 75%
    12:00 +26°C° 0.7 mm 5 mps 745 mmHg 72%
    13:00 +26°C° 0.7 mm 4 mps 745 mmHg 70%
    14:00 +27°C° 0.7 mm 4 mps 744 mmHg 67%
    15:00 +26°C° 1.9 mm 3 mps 744 mmHg 71%
    16:00 +26°C° 1.9 mm 2 mps 744 mmHg 74%
    17:00 +25°C° 1.9 mm 2 mps 744 mmHg 78%
    18:00 +24°C° 0.4 mm 2 mps 744 mmHg 82%
    19:00 +23°C° 0.4 mm 2 mps 744 mmHg 85%
    20:00 +20°C° 0.4 mm 3 mps 744 mmHg 88%
    21:00 +20°C° 0 mm 3 mps 744 mmHg 91%
    22:00 +19°C° 0 mm 3 mps 744 mmHg 93%
    23:00 +18°C° 0 mm 3 mps 744 mmHg 95%

    9 June, Tuesday

    Time Temperature Precipitation Wind Pressure Humidity
    00:00 +18°C° 0 mm 3 mps 744 mmHg 95%
    01:00 +17°C° 0 mm 2 mps 744 mmHg 96%
    02:00 +17°C° 0 mm 2 mps 744 mmHg 96%
    03:00 +17°C° 0 mm 2 mps 745 mmHg 96%
    04:00 +17°C° 0 mm 2 mps 745 mmHg 96%
    05:00 +17°C° 0 mm 3 mps 745 mmHg 97%
    06:00 +18°C° 0 mm 3 mps 745 mmHg 93%
    07:00 +20°C° 0 mm 3 mps 746 mmHg 90%
    08:00 +21°C° 0 mm 3 mps 746 mmHg 87%
    09:00 +24°C° 0 mm 3 mps 746 mmHg 80%
    10:00 +25°C° 0 mm 3 mps 746 mmHg 74%
    11:00 +27°C° 0 mm 3 mps 747 mmHg 67%
    12:00 +27°C° 0.9 mm 3 mps 746 mmHg 69%
    13:00 +27°C° 0.9 mm 3 mps 746 mmHg 71%
    14:00 +27°C° 0.9 mm 3 mps 746 mmHg 73%
    15:00 +27°C° 0.5 mm 3 mps 746 mmHg 74%
    16:00 +27°C° 0.5 mm 2 mps 746 mmHg 75%
    17:00 +27°C° 0.5 mm 2 mps 746 mmHg 76%
    18:00 +26°C° 0.3 mm 2 mps 746 mmHg 79%
    19:00 +24°C° 0.3 mm 2 mps 746 mmHg 82%
    20:00 +23°C° 0.3 mm 2 mps 746 mmHg 85%
    21:00 +21°C° 1.4 mm 2 mps 747 mmHg 88%
    22:00 +21°C° 1.4 mm 2 mps 747 mmHg 90%
    23:00 +20°C° 1.4 mm 2 mps 747 mmHg 92%
    Show more